Regional Weather Roundup
Issued by NWS

Home | Current Version | Previous Version | Text Only | Print | Product List | Glossary Off
Versions: 1 2 3 4 5 6 7 8 9 10 11 12 13 14 15 16 17 18 19 20 21 22 23 24 25 26 27 28 29 30 31 32 33 34 35 36 37 38 39 40 41 42 43 44 45 46 47 48 49 50

000
ASUS43 KMKX 281411
RWRWI

WISCONSIN REGIONAL WEATHER ROUNDUP
NATIONAL WEATHER SERVICE MILWAUKEE/SULLIVAN WI
900 AM CDT THU APR 28 2016

NOTE: "FAIR" INDICATES FEW OR NO CLOUDS BELOW 12,000 FEET WITH NO
SIGNIFICANT WEATHER AND/OR OBSTRUCTIONS TO VISIBILITY.

WIZ001-002-006>008-014>016-023>028-281500-
NORTHWEST WISCONSIN

CITY           SKY/WX    TMP DP  RH WIND       PRES   REMARKS
SUPERIOR ARPT  FAIR      40  33  77 NE17G23   30.08R WCI  31
ASHLAND        FAIR      41  26  55 NE15      30.06S
HAYWARD        CLOUDY    42  15  33 NE7G18    30.00R
SIREN          CLOUDY    42  18  37 NE9       30.00R
CUMBERLAND     CLOUDY    41  19  42 E6        29.98R
RICE LAKE      CLOUDY    43  19  37 E7        30.00R
CHETEK         CLOUDY    42  20  40 E7        29.99R
LADYSMITH      CLOUDY    43  19  38 E10G16    29.99R
EAU CLAIRE     RAIN      36  32  85 NE8       29.98R FOG     WCI  30
MENOMONIE      LGT RAIN  37  36  98 E7        29.99R WCI  31
NEW RICHMOND   LGT RAIN  36  31  83 NE10      29.98R WCI  28
OSCEOLA        LGT RAIN  37  31  78 NE8       30.02R WCI  31
$$

WIZ003>005-009-010-017-018-281500-
NORTH CENTRAL WISCONSIN

CITY           SKY/WX    TMP DP  RH WIND       PRES   REMARKS
MANITOWISH WTR CLOUDY    40  19  41 E8        30.01S WCI  35
ARBOR VITAE    CLOUDY    42  21  44 E5        30.00F
WOODRUFF       CLOUDY    42  21  44 E5        30.00F
RHINELANDER    CLOUDY    40  19  43 E13       30.01S WCI  32
EAGLE RIVER    FAIR      39  18  42 E8        30.01F WCI  33
LAND O LAKES   CLOUDY    40  20  43 E7        30.03S
PHILLIPS       CLOUDY    42  20  41 E9        29.98R
TOMAHAWK       CLOUDY    41  20  43 E8        30.00R
MEDFORD        CLOUDY    40  22  47 E14       29.94S WCI  33
MERRILL        PTSUNNY   43  21  42 E8G17     29.98S
$$

WIZ029-030-035-036-043>047-281500-
CENTRAL WISCONSIN

CITY           SKY/WX    TMP DP  RH WIND       PRES   REMARKS
WAUSAU         CLOUDY    43  22  43 E13       29.95R
MOSINEE        CLOUDY    39  23  52 E10       29.96R WCI  32
MARSHFIELD     CLOUDY    40  26  57 E12       29.93R WCI  33
STEVENS POINT  CLOUDY    38  25  60 E12G18    29.95R WCI  30
WAUPACA        CLOUDY    42  32  67 E9        29.96S
WAUTOMA        NOT AVBL
WISC RAPIDS    LGT RAIN  40  25  55 E13G20    29.95R WCI  32
CAMP DOUGLAS   CLOUDY    41  41 100 E13       29.93R
$$

WIZ011>013-019>022-031-037>040-048>050-281500-
NORTHEAST WISCONSIN

CITY           SKY/WX    TMP DP  RH WIND       PRES   REMARKS
ANTIGO         CLOUDY    40  21  46 E15G21    29.98S WCI  32
SHAWANO        CLOUDY    42  31  64 E13       30.00S
OCONTO         FAIR      42  29  59 NE10G17   30.01F
STURGEON BAY   PTSUNNY   39  28  65 NE12      30.04R WCI  32
GREEN BAY      CLOUDY    43  28  55 NE13      29.99S
MANITOWOC      LGT RAIN  41  30  65 E14       29.99S
APPLETON       CLOUDY    39  28  65 E12       29.95R WCI  32
CLINTONVILLE   CLOUDY    41  30  65 E12       29.98S
OSHKOSH        CLOUDY    44  23  43 E17G23    29.94S
$$

WIZ032>034-041-042-053>061-281500-
SOUTHWEST WISCONSIN

CITY           SKY/WX    TMP DP  RH WIND       PRES   REMARKS
LA CROSSE      CLOUDY    43  31  62 NE8       29.91R
SPARTA         CLOUDY    42  32  67 E9        29.92S
VIROQUA        CLOUDY    41  33  72 E16       29.88R
BOSCOBEL       CLOUDY    45  35  68 NE9       29.88R
PRAIRIE DU CHI CLOUDY    44  36  72 NE8       29.86S
PLATTEVILLE    CLOUDY    44  42  92 E16       29.85R
$$

WIZ056-057-062-063-064-067-068-281500-
SOUTH CENTRAL WISCONSIN

CITY           SKY/WX    TMP DP  RH WIND       PRES   REMARKS
REEDSBURG      CLOUDY    41  34  74 E10G17    29.91R
BARABOO/DELLS  RAIN      39  35  83 E10       29.91R WCI  33
LONE ROCK      LGT RAIN  43  37  79 E12       29.90R
MINERAL POINT  CLOUDY    45  41  87 E13       29.86R
MADISON        LGT RAIN  41  35  79 E12G17    29.90R
MIDDLETON      CLOUDY    42  37  83 E9        29.90R
WATERTOWN      CLOUDY    40  36  84 E21G26    29.91R WCI  30
MONROE         CLOUDY    41  37  87 E15       29.87R
JANESVILLE     CLOUDY    43  39  87 E20       29.88R
$$

WIZ051-052-058>065-066-070>072-281500-
SOUTHEAST WISCONSIN

CITY           SKY/WX    TMP DP  RH WIND       PRES   REMARKS
MILWAUKEE      CLOUDY    39  33  79 NE14      29.93R WCI  31
WAUKESHA       CLOUDY    37  32  81 E12G23    29.92S WCI  30
MILWAUKEE/TIMM CLOUDY    39  30  70 NE12G17   29.95R WCI  32
RACINE         CLOUDY    40  31  70 E15G23    29.93S WCI  32
BURLINGTON     CLOUDY    38  34  83 E17G23    29.89F WCI  29
KENOSHA        CLOUDY    40  33  76 NE20G25   29.90R WCI  30
FOND DU LAC    LGT RAIN  43  26  51 E15       29.94R
SHEBOYGAN      LGT RAIN  40  29  64 E10       29.98R WCI  33
WEST BEND      CLOUDY    36  32  87 E12G20    29.95R WCI  27
JUNEAU         DRIZZLE   38  34  84 E13G20    29.93R WCI  30
$$

LSZ147-162-281500-
LAKE SUPERIOR

STATION/POSITION TIME  TEMP    WIND        PRES    WAVE
                       AIR SEA DIR/SP/G            HT/PER
                 (UTC) (F)     (DEG/KT/KT) (MB)    (FT/S)
W MID LAKE BUOY  1350   37 36   60/ 16/ 17 1020.7F   3/ 4
DEVILS ISLAND    1400   38      60/ 22/ 24 1020.0R
SAXON HARBOR     1300   39      40/ 12/ 14 1017.3F
$$

LMZ867-665-643>646-281500-
LAKE MICHIGAN

STATION/POSITION TIME  TEMP    WIND        PRES    WAVE
                       AIR SEA DIR/SP/G            HT/PER
                 (UTC) (F)     (DEG/KT/KT) (MB)    (FT/S)
CHAMBERS ISLAND  1300   39      40/ 10/ 13 1017.3S
N MID LAKE BUOY  1350   39 38   80/ 19/ 21 1017.3F   2/ 3
NORTHPORT PIER   1300   39      60/ 13/ 17 1017.6S
ALGOMA LAKESHORE 1345           60/ 21/ 25   N/A
KEWAUNEE LAKESHO 1300   40      50/ 13/ 17 1015.0R
SHEBOYGAN LAKESH 1400   40     110/ 14/ 15 1016.0R
PORT WASHINGTON  1300   40      90/ 15/ 19 1015.2R
S MID LAKE BUOY  1350   39 40   80/ 21/ 25 1011.7R   5/ 5
KENOSHA   LAKESH 1400   40      60/ 19/ 20 1012.9R
$$

TC  - TEMPERATURE IN CELSIUS
VSB - VISIBILITY IN STATUTE MILES
WCI - WIND CHILL INDEX
HX  - HEAT INDEX





USA.gov is the U.S. government's official web portal to all federal, state and local government web resources and services.